When you browse on this site, cookies collect data to enhance your experience and personalize the content and advertising you see.
Visit our Privacy Policy to learn more. By continuing to use the site, you agree to this use of cookies and data.
  • In Austria
  • List of Countries
  • For 7 days
  • Water Temperature
  • Weather Map
  • News
  • Weather Widgets
  • user-avatar
    Login

    Hourly Weather Pacho

    Today, 22 September, Sunday

    Time Temperature Precipitation Wind Pressure Humidity
    00:00 +15°C° 0 mm 1 mps 613 mmHg 91%
    01:00 +15°C° 0 mm 1 mps 612 mmHg 90%
    02:00 +15°C° 0 mm 1 mps 612 mmHg 89%
    03:00 +15°C° 0 mm 1 mps 612 mmHg 89%
    04:00 +15°C° 0 mm 1 mps 612 mmHg 88%
    05:00 +15°C° 0 mm 1 mps 613 mmHg 87%
    06:00 +16°C° 0 mm 1 mps 613 mmHg 85%
    07:00 +18°C° 0 mm 1 mps 614 mmHg 84%
    08:00 +20°C° 0.1 mm 1 mps 615 mmHg 78%
    09:00 +22°C° 0.1 mm 1 mps 616 mmHg 71%
    10:00 +24°C° 0.1 mm 1 mps 617 mmHg 65%
    11:00 +23°C° 1.2 mm 1 mps 616 mmHg 70%
    12:00 +23°C° 1.2 mm 1 mps 615 mmHg 75%
    13:00 +23°C° 1.2 mm 1 mps 614 mmHg 79%
    14:00 +23°C° 1.7 mm 1 mps 613 mmHg 81%
    15:00 +22°C° 1.7 mm 1 mps 613 mmHg 82%
    16:00 +22°C° 1.7 mm 1 mps 612 mmHg 84%
    17:00 +21°C° 1.3 mm 1 mps 612 mmHg 86%
    18:00 +19°C° 1.3 mm 1 mps 612 mmHg 89%
    19:00 +18°C° 1.3 mm 1 mps 612 mmHg 92%
    20:00 +16°C° 0.9 mm 1 mps 613 mmHg 92%
    21:00 +16°C° 0.9 mm 1 mps 613 mmHg 93%
    22:00 +15°C° 0.9 mm 1 mps 613 mmHg 93%
    23:00 +15°C° 0.2 mm 1 mps 613 mmHg 93%

    Tomorrow, 23 September, Monday

    Time Temperature Precipitation Wind Pressure Humidity
    00:00 +15°C° 0.2 mm 1 mps 613 mmHg 93%
    01:00 +15°C° 0.2 mm 1 mps 613 mmHg 93%
    02:00 +15°C° 0 mm 1 mps 613 mmHg 92%
    03:00 +14°C° 0 mm 1 mps 613 mmHg 92%
    04:00 +14°C° 0 mm 1 mps 613 mmHg 91%
    05:00 +15°C° 0 mm 1 mps 613 mmHg 89%
    06:00 +16°C° 0 mm 1 mps 614 mmHg 87%
    07:00 +16°C° 0 mm 1 mps 614 mmHg 85%
    08:00 +19°C° 0.1 mm 1 mps 615 mmHg 79%
    09:00 +21°C° 0.1 mm 1 mps 616 mmHg 72%
    10:00 +23°C° 0.1 mm 1 mps 616 mmHg 65%
    11:00 +23°C° 0.7 mm 1 mps 616 mmHg 71%
    12:00 +23°C° 0.7 mm 1 mps 615 mmHg 76%
    13:00 +22°C° 0.7 mm 1 mps 614 mmHg 81%
    14:00 +22°C° 1.3 mm 1 mps 613 mmHg 83%
    15:00 +22°C° 1.3 mm 1 mps 613 mmHg 85%
    16:00 +22°C° 1.3 mm 1 mps 612 mmHg 87%
    17:00 +21°C° 1.1 mm 1 mps 612 mmHg 90%
    18:00 +20°C° 1.1 mm 1 mps 612 mmHg 93%
    19:00 +19°C° 1.1 mm 1 mps 612 mmHg 95%
    20:00 +18°C° 0.8 mm 1 mps 613 mmHg 94%
    21:00 +18°C° 0.8 mm 1 mps 613 mmHg 93%
    22:00 +18°C° 0.8 mm 1 mps 614 mmHg 93%
    23:00 +18°C° 0.6 mm 1 mps 613 mmHg 92%

    Day after tomorrow, 24 September, Tuesday

    Time Temperature Precipitation Wind Pressure Humidity
    00:00 +16°C° 0.6 mm 1 mps 613 mmHg 92%
    01:00 +16°C° 0.6 mm 1 mps 613 mmHg 91%
    02:00 +16°C° 0 mm 1 mps 613 mmHg 91%
    03:00 +15°C° 0 mm 1 mps 613 mmHg 91%
    04:00 +15°C° 0 mm 1 mps 612 mmHg 91%
    05:00 +16°C° 0 mm 1 mps 613 mmHg 90%
    06:00 +16°C° 0 mm 1 mps 614 mmHg 88%
    07:00 +18°C° 0 mm 1 mps 614 mmHg 87%
    08:00 +20°C° 0.1 mm 1 mps 615 mmHg 80%
    09:00 +22°C° 0.1 mm 1 mps 616 mmHg 72%
    10:00 +24°C° 0.1 mm 1 mps 616 mmHg 65%
    11:00 +24°C° 0.5 mm 1 mps 616 mmHg 66%
    12:00 +24°C° 0.5 mm 1 mps 615 mmHg 66%
    13:00 +25°C° 0.5 mm 2 mps 614 mmHg 66%
    14:00 +24°C° 0.9 mm 1 mps 614 mmHg 71%
    15:00 +23°C° 0.9 mm 1 mps 613 mmHg 76%
    16:00 +22°C° 0.9 mm 1 mps 612 mmHg 80%
    17:00 +21°C° 1.5 mm 1 mps 612 mmHg 84%
    18:00 +20°C° 1.5 mm 1 mps 612 mmHg 88%
    19:00 +19°C° 1.5 mm 1 mps 612 mmHg 91%
    20:00 +19°C° 1.2 mm 1 mps 613 mmHg 92%
    21:00 +18°C° 1.2 mm 1 mps 613 mmHg 92%
    22:00 +18°C° 1.2 mm 1 mps 614 mmHg 92%
    23:00 +18°C° 0.1 mm 1 mps 614 mmHg 92%

    25 September, Wednesday

    Time Temperature Precipitation Wind Pressure Humidity
    00:00 +16°C° 0.1 mm 1 mps 613 mmHg 92%
    01:00 +16°C° 0.1 mm 1 mps 613 mmHg 92%
    02:00 +16°C° 0.1 mm 1 mps 613 mmHg 92%
    03:00 +15°C° 0.1 mm 0 mps 613 mmHg 92%
    04:00 +15°C° 0.1 mm 0 mps 613 mmHg 92%
    05:00 +15°C° 0.1 mm 0 mps 613 mmHg 91%
    06:00 +16°C° 0.1 mm 0 mps 614 mmHg 90%
    07:00 +16°C° 0.1 mm 0 mps 615 mmHg 88%
    08:00 +20°C° 0.4 mm 1 mps 615 mmHg 85%
    09:00 +21°C° 0.4 mm 1 mps 616 mmHg 82%
    10:00 +22°C° 0.4 mm 1 mps 616 mmHg 79%
    11:00 +22°C° 1.3 mm 1 mps 615 mmHg 81%
    12:00 +21°C° 1.3 mm 1 mps 614 mmHg 83%
    13:00 +19°C° 1.3 mm 0 mps 613 mmHg 86%
    14:00 +19°C° 1.4 mm 0 mps 613 mmHg 87%
    15:00 +19°C° 1.4 mm 0 mps 613 mmHg 88%
    16:00 +19°C° 1.4 mm 0 mps 613 mmHg 89%
    17:00 +18°C° 1.3 mm 0 mps 613 mmHg 90%
    18:00 +19°C° 1.3 mm 1 mps 613 mmHg 92%
    19:00 +18°C° 1.3 mm 1 mps 612 mmHg 94%
    20:00 +18°C° 0.3 mm 1 mps 613 mmHg 94%
    21:00 +16°C° 0.3 mm 1 mps 613 mmHg 93%
    22:00 +16°C° 0.3 mm 1 mps 614 mmHg 93%
    23:00 +16°C° 0 mm 1 mps 613 mmHg 93%

    26 September, Thursday

    Time Temperature Precipitation Wind Pressure Humidity
    00:00 +15°C° 0 mm 1 mps 613 mmHg 92%
    01:00 +15°C° 0 mm 1 mps 613 mmHg 92%
    02:00 +15°C° 0 mm 1 mps 612 mmHg 92%
    03:00 +15°C° 0 mm 1 mps 612 mmHg 91%
    04:00 +15°C° 0 mm 1 mps 612 mmHg 91%
    05:00 +16°C° 0 mm 1 mps 613 mmHg 89%
    06:00 +16°C° 0 mm 1 mps 614 mmHg 87%
    07:00 +18°C° 0 mm 1 mps 614 mmHg 84%
    08:00 +20°C° 0 mm 1 mps 615 mmHg 76%
    09:00 +22°C° 0 mm 1 mps 616 mmHg 68%
    10:00 +24°C° 0 mm 1 mps 616 mmHg 59%
    11:00 +24°C° 0.3 mm 2 mps 616 mmHg 60%
    12:00 +24°C° 0.3 mm 2 mps 615 mmHg 61%
    13:00 +25°C° 0.3 mm 2 mps 614 mmHg 62%
    14:00 +24°C° 0.9 mm 2 mps 614 mmHg 66%
    15:00 +23°C° 0.9 mm 1 mps 613 mmHg 70%
    16:00 +23°C° 0.9 mm 1 mps 612 mmHg 75%
    17:00 +21°C° 0.6 mm 1 mps 612 mmHg 79%
    18:00 +19°C° 0.6 mm 1 mps 612 mmHg 82%
    19:00 +16°C° 0.6 mm 1 mps 612 mmHg 86%
    20:00 +16°C° 0.1 mm 1 mps 612 mmHg 86%
    21:00 +15°C° 0.1 mm 1 mps 612 mmHg 86%
    22:00 +15°C° 0.1 mm 2 mps 613 mmHg 87%
    23:00 +15°C° 0 mm 2 mps 612 mmHg 85%

    27 September, Friday

    Time Temperature Precipitation Wind Pressure Humidity
    00:00 +15°C° 0 mm 2 mps 612 mmHg 84%
    01:00 +15°C° 0 mm 1 mps 612 mmHg 83%
    02:00 +14°C° 0 mm 1 mps 612 mmHg 81%
    03:00 +14°C° 0 mm 1 mps 612 mmHg 80%
    04:00 +14°C° 0 mm 1 mps 611 mmHg 79%
    05:00 +15°C° 0 mm 1 mps 612 mmHg 77%
    06:00 +16°C° 0 mm 1 mps 613 mmHg 75%
    07:00 +18°C° 0 mm 1 mps 614 mmHg 73%
    08:00 +20°C° 0 mm 1 mps 615 mmHg 68%
    09:00 +22°C° 0 mm 1 mps 616 mmHg 63%
    10:00 +24°C° 0 mm 1 mps 616 mmHg 58%
    11:00 +24°C° 0.4 mm 1 mps 616 mmHg 61%
    12:00 +24°C° 0.4 mm 1 mps 615 mmHg 64%
    13:00 +24°C° 0.4 mm 1 mps 614 mmHg 67%
    14:00 +24°C° 1.4 mm 1 mps 613 mmHg 72%
    15:00 +23°C° 1.4 mm 1 mps 613 mmHg 77%
    16:00 +22°C° 1.4 mm 1 mps 612 mmHg 82%
    17:00 +21°C° 1 mm 1 mps 612 mmHg 85%
    18:00 +20°C° 1 mm 1 mps 612 mmHg 88%
    19:00 +19°C° 1 mm 1 mps 613 mmHg 90%
    20:00 +18°C° 0.6 mm 1 mps 613 mmHg 91%
    21:00 +16°C° 0.6 mm 1 mps 613 mmHg 92%
    22:00 +15°C° 0.6 mm 1 mps 613 mmHg 93%
    23:00 +15°C° 0 mm 1 mps 613 mmHg 92%
    Show more